Year,Month,Day,Hour,Minute,Value (Times are PST for temperature in C)
2011,04,01,00,00,6.30
2011,04,01,00,01,6.30
2011,04,01,00,02,6.30
2011,04,01,00,03,6.30
2011,04,01,00,04,6.30
2011,04,01,00,05,6.30
2011,04,01,00,06,6.30
2011,04,01,00,07,6.30
2011,04,01,00,08,6.30
2011,04,01,00,09,6.30
2011,04,01,00,10,6.30
2011,04,01,00,11,6.30
2011,04,01,00,12,6.30
2011,04,01,00,13,6.30
2011,04,01,00,14,6.30
2011,04,01,00,15,6.30
2011,04,01,00,16,6.30
2011,04,01,00,17,6.30
2011,04,01,00,18,6.30
2011,04,01,00,19,6.30
2011,04,01,00,20,6.30
2011,04,01,00,21,6.30
2011,04,01,00,22,6.30
2011,04,01,00,23,6.30
2011,04,01,00,24,6.30
2011,04,01,00,25,6.30
2011,04,01,00,26,6.30
2011,04,01,00,27,6.30
2011,04,01,00,28,6.30
2011,04,01,00,29,6.20
2011,04,01,00,30,6.20
2011,04,01,00,31,6.20
2011,04,01,00,32,6.20
2011,04,01,00,33,6.20
2011,04,01,00,34,6.20
2011,04,01,00,35,6.20
2011,04,01,00,36,6.20
2011,04,01,00,37,6.20
2011,04,01,00,38,6.20
2011,04,01,00,39,6.20
2011,04,01,09,25,4.90
2011,04,01,09,26,4.90
2011,04,01,09,27,4.90
2011,04,01,09,28,4.90
2011,04,01,09,29,4.90
2011,04,01,09,30,4.90
2011,04,01,09,31,4.90
2011,04,01,09,32,4.80
2011,04,01,09,33,4.90
2011,04,01,09,34,4.90
2011,04,01,09,35,4.90
2011,04,01,09,36,4.90
2011,04,01,09,37,4.90
2011,04,01,09,38,4.90
2011,04,01,09,39,4.80
2011,04,01,09,40,4.80
2011,04,01,09,41,4.80
2011,04,01,09,42,4.80
2011,04,01,09,43,4.80
2011,04,01,09,44,4.80
2011,04,01,09,45,4.90
2011,04,01,09,46,4.90
2011,04,01,09,47,4.90
2011,04,01,09,48,4.90
2011,04,01,09,49,4.90
2011,04,01,09,50,4.90
2011,04,01,09,51,4.90
2011,04,01,09,52,4.90
2011,04,01,09,53,4.90
2011,04,01,09,54,5.00
2011,04,01,09,55,5.00
2011,04,01,09,56,5.00
2011,04,01,09,57,5.00
2011,04,01,09,58,5.00
2011,04,01,09,59,5.00
2011,04,01,10,00,5.10
2011,04,01,10,01,5.10
2011,04,01,10,02,5.10
2011,04,01,10,03,5.10
2011,04,01,10,04,5.10
2011,04,01,10,05,5.10
2011,04,01,10,06,5.10
2011,04,01,10,07,5.10
2011,04,01,10,08,5.10
2011,04,01,10,09,5.10
2011,04,01,10,10,5.00
2011,04,01,10,11,5.00
2011,04,01,10,12,5.00
2011,04,01,10,13,5.00
2011,04,01,10,14,5.00
2011,04,01,10,15,4.90
2011,04,01,10,16,4.90
2011,04,01,10,17,4.90
2011,04,01,10,18,4.90
2011,04,01,10,19,4.90
2011,04,01,10,20,4.90
2011,04,01,10,21,4.90
2011,04,01,10,22,4.90
2011,04,01,10,23,4.90
2011,04,01,10,24,4.90
2011,04,01,10,25,4.90
2011,04,01,10,26,4.90
2011,04,01,10,27,4.80
2011,04,01,10,28,4.90
2011,04,01,10,29,4.80
2011,04,01,10,30,4.80
2011,04,01,10,31,4.80
2011,04,01,10,32,4.80
2011,04,01,10,33,4.80
2011,04,01,10,34,4.80
2011,04,01,10,35,4.80
2011,04,01,10,36,4.80
2011,04,01,10,37,4.80
2011,04,01,10,38,4.80
2011,04,01,10,39,4.80
2011,04,01,10,40,4.80
2011,04,01,10,41,4.80
2011,04,01,10,42,4.80
2011,04,01,10,43,4.80
2011,04,01,10,44,4.80
2011,04,01,10,45,4.80
2011,04,01,10,46,4.80
2011,04,01,10,47,4.80
2011,04,01,10,48,4.80
2011,04,01,10,49,4.80
2011,04,01,10,50,4.80
2011,04,01,10,51,4.80
2011,04,01,10,52,4.80
2011,04,01,10,53,4.80
2011,04,01,10,54,4.80
2011,04,01,10,55,4.80
2011,04,01,10,56,4.80
2011,04,01,10,57,4.80
2011,04,01,10,58,4.80
2011,04,01,10,59,4.70
2011,04,01,11,00,4.70
2011,04,01,11,01,4.70
2011,04,01,11,02,4.70
2011,04,01,11,03,4.70
2011,04,01,11,04,4.60
2011,04,01,11,05,4.60
2011,04,01,11,06,4.60
2011,04,01,11,07,4.60
2011,04,01,11,08,4.60
2011,04,01,11,09,4.60
2011,04,01,11,10,4.60
2011,04,01,11,11,4.60
2011,04,01,11,12,4.60
2011,04,01,11,13,4.60
2011,04,01,11,14,4.60
2011,04,01,11,15,4.60
2011,04,01,11,16,4.60
2011,04,01,11,17,4.70
2011,04,01,11,18,4.60
2011,04,01,11,19,4.70
2011,04,01,11,20,4.70
2011,04,01,11,21,4.70
2011,04,01,11,22,4.70
2011,04,01,11,23,4.70
2011,04,01,11,24,4.70
2011,04,01,11,25,4.70
2011,04,01,11,26,4.70
2011,04,01,11,27,4.70
2011,04,01,11,28,4.70
2011,04,01,11,29,4.70
2011,04,01,11,30,4.70
2011,04,01,11,31,4.70
2011,04,01,11,32,4.70
2011,04,01,11,33,4.70
2011,04,01,11,34,4.60
2011,04,01,11,35,4.60
2011,04,01,11,36,4.60
2011,04,01,11,37,4.60
2011,04,01,11,38,4.60
2011,04,01,11,39,4.60
2011,04,01,11,40,4.60
2011,04,01,11,41,4.50
2011,04,01,11,42,4.50
2011,04,01,11,43,4.50
2011,04,01,11,44,4.40
2011,04,01,11,45,4.40
2011,04,01,11,46,4.40
2011,04,01,11,47,4.40
2011,04,01,11,48,4.40
2011,04,01,11,49,4.40
2011,04,01,11,50,4.40
2011,04,01,11,51,4.40
2011,04,01,11,52,4.40
2011,04,01,11,53,4.40
2011,04,01,11,54,4.40
2011,04,01,11,55,4.40
2011,04,01,11,56,4.40
2011,04,01,11,57,4.40
2011,04,01,11,58,4.40
2011,04,01,11,59,4.40
2011,04,01,12,00,4.40
2011,04,01,12,01,4.40
2011,04,01,12,02,4.40
2011,04,01,12,03,4.40
2011,04,01,12,04,4.30
2011,04,01,12,05,4.30
2011,04,01,12,06,4.30
2011,04,01,12,07,4.30
2011,04,01,12,08,4.30
2011,04,01,12,09,4.30
2011,04,01,12,10,4.30
2011,04,01,12,11,4.30
2011,04,01,12,12,4.30
2011,04,01,12,13,4.20
2011,04,01,12,14,4.20
2011,04,01,12,15,4.20
2011,04,01,12,16,4.20
2011,04,01,12,17,4.20
2011,04,01,12,18,4.20
2011,04,01,12,19,4.10
2011,04,01,12,20,4.10
2011,04,01,12,21,4.10
2011,04,01,12,22,4.10
2011,04,01,12,23,4.10
2011,04,01,12,24,4.10
2011,04,01,12,25,4.10
2011,04,01,12,26,4.10
2011,04,01,12,27,4.10
2011,04,01,12,28,4.10
2011,04,01,12,29,4.00
2011,04,01,12,30,4.00
2011,04,01,12,31,4.00
2011,04,01,12,32,3.90
2011,04,01,12,33,3.90
2011,04,01,12,34,3.90
2011,04,01,12,35,3.90
2011,04,01,12,36,3.90
2011,04,01,12,37,3.90
2011,04,01,12,38,3.90
2011,04,01,12,39,3.90
2011,04,01,12,40,3.90
2011,04,01,12,41,3.90
2011,04,01,12,42,3.80
2011,04,01,12,43,3.80
2011,04,01,12,44,3.80
2011,04,01,12,45,3.80
2011,04,01,12,46,3.80
2011,04,01,12,47,3.80
2011,04,01,12,48,3.80
2011,04,01,12,49,3.80
2011,04,01,12,50,3.80
2011,04,01,12,51,3.80
2011,04,01,12,52,3.80
2011,04,01,12,53,3.80
2011,04,01,12,54,3.80
2011,04,01,12,55,3.80
2011,04,01,12,56,3.80
2011,04,01,12,57,3.70
2011,04,01,12,58,3.70
2011,04,01,12,59,3.70
2011,04,01,13,00,3.70
2011,04,01,13,01,3.70
2011,04,01,13,02,3.70
2011,04,01,13,03,3.70
2011,04,01,13,04,3.80
2011,04,01,13,05,3.80
2011,04,01,13,06,3.80
2011,04,01,13,07,3.80
2011,04,01,13,08,3.80
2011,04,01,13,09,3.80
2011,04,01,13,10,3.80
2011,04,01,13,11,3.80
2011,04,01,13,12,3.80
2011,04,01,13,13,3.90
2011,04,01,13,14,3.90
2011,04,01,13,15,3.80
2011,04,01,13,16,3.80
2011,04,01,13,17,3.80
2011,04,01,13,18,3.80
2011,04,01,13,19,3.80
2011,04,01,13,20,3.80
2011,04,01,13,21,3.80
2011,04,01,13,22,3.80
2011,04,01,13,23,3.80
2011,04,01,13,24,3.70
2011,04,01,13,25,3.70
2011,04,01,13,26,3.70
2011,04,01,13,27,3.70
2011,04,01,13,28,3.70
2011,04,01,13,29,3.70
2011,04,01,13,30,3.70
2011,04,01,13,31,3.70
2011,04,01,13,32,3.70
2011,04,01,13,33,3.70
2011,04,01,13,34,3.70
2011,04,01,13,35,3.70
2011,04,01,13,36,3.70
2011,04,01,13,37,3.60
2011,04,01,13,38,3.60
2011,04,01,13,39,3.60
2011,04,01,13,40,3.70
2011,04,01,13,41,3.70
2011,04,01,13,42,3.70
2011,04,01,13,43,3.70
2011,04,01,13,44,3.70
2011,04,01,13,45,3.70
2011,04,01,13,46,3.70
2011,04,01,13,47,3.70
2011,04,01,13,48,3.70
2011,04,01,13,49,3.70
2011,04,01,13,50,3.70
2011,04,01,13,51,3.80
2011,04,01,13,52,3.70
2011,04,01,13,53,3.80
2011,04,01,13,54,3.80
2011,04,01,13,55,3.80
2011,04,01,13,56,3.80
2011,04,01,13,57,3.80
2011,04,01,13,58,3.80
2011,04,01,13,59,3.90
2011,04,01,14,00,3.90
2011,04,01,14,01,3.90
2011,04,01,14,02,3.90
2011,04,01,14,03,3.90
2011,04,01,14,04,3.90
2011,04,01,14,05,3.90
2011,04,01,14,06,3.90
2011,04,01,14,07,3.90
2011,04,01,14,08,3.90
2011,04,01,14,09,3.90
2011,04,01,14,10,3.90
2011,04,01,14,11,3.90
2011,04,01,14,12,3.80
2011,04,01,14,13,3.80
2011,04,01,14,14,3.80
2011,04,01,14,15,3.80
2011,04,01,14,16,3.80
2011,04,01,14,17,3.90
2011,04,01,14,18,3.90
2011,04,01,14,19,3.90
2011,04,01,14,20,3.90
2011,04,01,14,21,3.90
2011,04,01,14,22,3.90
2011,04,01,14,23,3.90
2011,04,01,14,24,3.90
2011,04,01,14,25,3.90
2011,04,01,14,26,4.00
2011,04,01,14,27,4.00
2011,04,01,14,28,4.00
2011,04,01,14,29,4.10
2011,04,01,14,30,4.10
2011,04,01,14,31,4.10
2011,04,01,14,32,4.10
2011,04,01,14,33,4.10
2011,04,01,14,34,4.20
2011,04,01,14,35,4.20
2011,04,01,14,36,4.20
2011,04,01,14,37,4.20
2011,04,01,14,38,4.20
2011,04,01,14,39,4.30
2011,04,01,14,40,4.30
2011,04,01,14,41,4.30
2011,04,01,14,42,4.30
2011,04,01,14,43,4.30
2011,04,01,14,44,4.40
2011,04,01,14,45,4.40
2011,04,01,14,46,4.40
2011,04,01,14,47,4.50
2011,04,01,14,48,4.50
2011,04,01,14,49,4.50
2011,04,01,14,50,4.50
2011,04,01,14,51,4.60
2011,04,01,14,52,4.60
2011,04,01,14,53,4.60
2011,04,01,14,54,4.70
2011,04,01,14,55,4.70
2011,04,01,14,56,4.70
2011,04,01,14,57,4.70
2011,04,01,14,58,4.70
2011,04,01,14,59,4.70
2011,04,01,15,00,4.70
2011,04,01,15,01,4.70
2011,04,01,15,02,4.70
2011,04,01,15,03,4.70
2011,04,01,15,04,4.70
2011,04,01,15,05,4.70
2011,04,01,15,06,4.70
2011,04,01,15,07,4.80
2011,04,01,15,08,4.80
2011,04,01,15,09,4.80
2011,04,01,15,10,4.80
2011,04,01,15,11,4.80
2011,04,01,15,12,4.80
2011,04,01,15,13,4.80
2011,04,01,15,14,4.90
2011,04,01,15,15,4.90
2011,04,01,15,16,4.90
2011,04,01,15,17,4.90
2011,04,01,15,18,4.90
2011,04,01,15,19,4.90
2011,04,01,15,20,4.90
2011,04,01,15,21,4.90
2011,04,01,15,22,4.90
2011,04,01,15,23,4.90
2011,04,01,15,24,4.80
2011,04,01,15,25,4.80
2011,04,01,15,26,4.80
2011,04,01,15,27,4.90
2011,04,01,15,28,4.90
2011,04,01,15,29,4.90
2011,04,01,15,30,4.90
2011,04,01,15,31,4.90
2011,04,01,15,32,4.90
2011,04,01,15,33,4.90
2011,04,01,15,34,4.90
2011,04,01,15,35,4.90
2011,04,01,15,36,4.90
2011,04,01,15,37,4.90
2011,04,01,15,38,4.90
2011,04,01,15,39,4.90
2011,04,01,15,40,4.90
2011,04,01,15,41,4.90
2011,04,01,15,42,4.90
2011,04,01,15,43,4.90
2011,04,01,15,44,4.90
2011,04,01,15,45,4.90
2011,04,01,15,46,4.80
2011,04,01,15,47,4.80
2011,04,01,15,48,4.80
2011,04,01,15,49,4.80
2011,04,01,15,50,4.80
2011,04,01,15,51,4.80
2011,04,01,15,52,4.80
2011,04,01,15,53,4.80
2011,04,01,15,54,4.80
2011,04,01,15,55,4.80
2011,04,01,15,56,4.80
2011,04,01,15,57,4.80
2011,04,01,15,58,4.80
2011,04,01,15,59,4.90
2011,04,01,16,00,4.90
2011,04,01,16,01,4.90
2011,04,01,16,02,5.00
2011,04,01,16,03,5.00
2011,04,01,16,04,5.10
2011,04,01,16,05,5.10
2011,04,01,16,06,5.10
2011,04,01,16,07,5.10
2011,04,01,16,08,5.10
2011,04,01,16,09,5.10
2011,04,01,16,10,5.10
2011,04,01,16,11,5.10
2011,04,01,16,12,5.20
2011,04,01,16,13,5.20
2011,04,01,16,14,5.20
2011,04,01,16,15,5.20
2011,04,01,16,16,5.20
2011,04,01,16,17,5.20
2011,04,01,16,18,5.20
2011,04,01,16,19,5.20
2011,04,01,16,20,5.20
2011,04,01,16,21,5.20
2011,04,01,16,22,5.20
2011,04,01,16,23,5.20
2011,04,01,16,24,5.20
2011,04,01,16,25,5.20
2011,04,01,16,26,5.20
2011,04,01,16,27,5.20
2011,04,01,16,28,5.20
2011,04,01,16,29,5.20
2011,04,01,16,30,5.20
2011,04,01,16,31,5.30
2011,04,01,16,32,5.30
2011,04,01,16,33,5.30
2011,04,01,16,34,5.30
2011,04,01,16,35,5.30
2011,04,01,16,36,5.30
2011,04,01,16,37,5.30
2011,04,01,16,38,5.30
2011,04,01,16,39,5.30
2011,04,01,16,40,5.20
2011,04,01,16,41,5.20
2011,04,01,16,42,5.20
2011,04,01,16,43,5.20
2011,04,01,16,44,5.10
2011,04,01,16,45,5.10
2011,04,01,16,46,5.10
2011,04,01,16,47,5.10
2011,04,01,16,48,5.10
2011,04,01,16,49,5.20
2011,04,01,16,50,5.20
2011,04,01,16,51,5.10
2011,04,01,16,52,5.10
2011,04,01,16,53,5.10
2011,04,01,16,54,5.10
2011,04,01,16,55,5.10
2011,04,01,16,56,5.10
2011,04,01,16,57,5.10
2011,04,01,16,58,5.10
2011,04,01,16,59,5.10
2011,04,01,17,00,5.10
2011,04,01,17,01,5.10
2011,04,01,17,02,5.10
2011,04,01,17,03,5.20
2011,04,01,17,04,5.20
2011,04,01,17,05,5.20
2011,04,01,17,06,5.30
2011,04,01,17,07,5.30
2011,04,01,17,08,5.30
2011,04,01,17,09,5.30
2011,04,01,17,10,5.30
2011,04,01,17,11,5.30
2011,04,01,17,12,5.30
2011,04,01,17,13,5.30
2011,04,01,17,14,5.30
2011,04,01,17,15,5.30
2011,04,01,17,16,5.40
2011,04,01,17,17,5.40
2011,04,01,17,18,5.40
2011,04,01,17,19,5.30
2011,04,01,17,20,5.30
2011,04,01,17,21,5.30
2011,04,01,17,22,5.20
2011,04,01,17,23,5.20
2011,04,01,17,24,5.20
2011,04,01,17,25,5.20
2011,04,01,17,26,5.20
2011,04,01,17,27,5.20
2011,04,01,17,28,5.20
2011,04,01,17,29,5.20
2011,04,01,17,30,5.20
2011,04,01,17,31,5.20
2011,04,01,17,32,5.20
2011,04,01,17,33,5.20
2011,04,01,17,34,5.20
2011,04,01,17,35,5.20
2011,04,01,17,36,5.30
2011,04,01,17,37,5.30
2011,04,01,17,38,5.30
2011,04,01,17,39,5.30
2011,04,01,17,40,5.20
2011,04,01,17,41,5.20
2011,04,01,17,42,5.20
2011,04,01,17,43,5.20
2011,04,01,17,44,5.20
2011,04,01,17,45,5.20
2011,04,01,17,46,5.20
2011,04,01,17,47,5.20
2011,04,01,17,48,5.20
2011,04,01,17,49,5.20
2011,04,01,17,50,5.20
2011,04,01,17,51,5.20
2011,04,01,17,52,5.20
2011,04,01,17,53,5.20
2011,04,01,17,54,5.20
2011,04,01,17,55,5.20
2011,04,01,17,56,5.20
2011,04,01,17,57,5.20
2011,04,01,17,58,5.20
2011,04,01,17,59,5.20
2011,04,01,18,00,5.20
2011,04,01,18,01,5.10
2011,04,01,18,02,5.10
2011,04,01,18,03,5.10
2011,04,01,18,04,5.10
2011,04,01,18,05,5.10
2011,04,01,18,06,5.10
2011,04,01,18,07,5.10
2011,04,01,18,08,5.10
2011,04,01,18,09,5.10
2011,04,01,18,10,5.10
2011,04,01,18,11,5.10
2011,04,01,18,12,5.10
2011,04,01,18,13,5.10
2011,04,01,18,14,5.10
2011,04,01,18,15,5.10
2011,04,01,18,16,5.10
2011,04,01,18,17,5.10
2011,04,01,18,18,5.10
2011,04,01,18,19,5.10
2011,04,01,18,20,5.10
2011,04,01,18,21,5.10
2011,04,01,18,22,5.10
2011,04,01,18,23,5.10
2011,04,01,18,24,5.10
2011,04,01,18,25,5.10
2011,04,01,18,26,5.10
2011,04,01,18,27,5.10
2011,04,01,18,28,5.10
2011,04,01,18,29,5.10
2011,04,01,18,30,5.10
2011,04,01,18,31,5.10
2011,04,01,18,32,5.10
2011,04,01,18,33,5.10
2011,04,01,18,34,5.10
2011,04,01,18,35,5.10
2011,04,01,18,36,5.10
2011,04,01,18,37,5.10
2011,04,01,18,38,5.10
2011,04,01,18,39,5.10
2011,04,01,18,40,5.10
2011,04,01,18,41,5.10
2011,04,01,18,42,5.10
2011,04,01,18,43,5.10
2011,04,01,18,44,5.10
2011,04,01,18,45,5.10
2011,04,01,18,46,5.10
2011,04,01,18,47,5.10
2011,04,01,18,48,5.10
2011,04,01,18,49,5.10
2011,04,01,18,50,5.10
2011,04,01,18,51,5.10
2011,04,01,18,52,5.10
2011,04,01,18,53,5.10
2011,04,01,18,54,5.10
2011,04,01,18,55,5.10
2011,04,01,18,56,5.10
2011,04,01,18,57,5.10
2011,04,01,18,58,5.10
2011,04,01,18,59,5.10
2011,04,01,19,00,5.00
2011,04,01,19,01,5.00
2011,04,01,19,02,5.00
2011,04,01,19,03,5.00
2011,04,01,19,04,5.00
2011,04,01,19,05,4.90
2011,04,01,19,06,4.90
2011,04,01,19,07,4.90
2011,04,01,19,08,4.90
2011,04,01,19,09,4.90
2011,04,01,19,10,4.90
2011,04,01,19,11,4.90
2011,04,01,19,12,4.90
2011,04,01,19,13,4.90
2011,04,01,19,14,4.90
2011,04,01,19,15,4.90
2011,04,01,19,16,4.90
2011,04,01,19,17,4.90
2011,04,01,19,18,4.80
2011,04,01,19,19,4.80
2011,04,01,19,20,4.80
2011,04,01,19,21,4.80
2011,04,01,19,22,4.80
2011,04,01,19,23,4.80
2011,04,01,19,24,4.80
2011,04,01,19,25,4.70
2011,04,01,19,26,4.70
2011,04,01,19,27,4.70
2011,04,01,19,28,4.70
2011,04,01,19,29,4.70
2011,04,01,19,30,4.70
2011,04,01,19,31,4.70
2011,04,01,19,32,4.70
2011,04,01,19,33,4.70
2011,04,01,19,34,4.70
2011,04,01,19,35,4.70
2011,04,01,19,36,4.70
2011,04,01,19,37,4.70
2011,04,01,19,38,4.70
2011,04,01,19,39,4.70
2011,04,01,19,40,4.70
2011,04,01,19,41,4.70
2011,04,01,19,42,4.70
2011,04,01,19,43,4.70
2011,04,01,19,44,4.70
2011,04,01,19,45,4.70
2011,04,01,19,46,4.70
2011,04,01,19,47,4.70
2011,04,01,19,48,4.70
2011,04,01,19,49,4.70
2011,04,01,19,50,4.70
2011,04,01,19,51,4.70
2011,04,01,19,52,4.70
2011,04,01,19,53,4.70
2011,04,01,19,54,4.70
2011,04,01,19,55,4.60
2011,04,01,19,56,4.70
2011,04,01,19,57,4.70
2011,04,01,19,58,4.70
2011,04,01,19,59,4.70
2011,04,01,20,00,4.70
2011,04,01,20,01,4.70
2011,04,01,20,02,4.70
2011,04,01,20,03,4.70
2011,04,01,20,04,4.70
2011,04,01,20,05,4.70
2011,04,01,20,06,4.70
2011,04,01,20,07,4.70
2011,04,01,20,08,4.60
2011,04,01,20,09,4.70
2011,04,01,20,10,4.60
2011,04,01,20,11,4.60
2011,04,01,20,12,4.60
2011,04,01,20,13,4.60
2011,04,01,20,14,4.60
2011,04,01,20,15,4.60
2011,04,01,20,16,4.60
2011,04,01,20,17,4.60
2011,04,01,20,18,4.60
2011,04,01,20,19,4.60
2011,04,01,20,20,4.60
2011,04,01,20,21,4.60
2011,04,01,20,22,4.60
2011,04,01,20,23,4.60
2011,04,01,20,24,4.60
2011,04,01,20,25,4.60
2011,04,01,20,26,4.60
2011,04,01,20,27,4.60
2011,04,01,20,28,4.60
2011,04,01,20,29,4.60
2011,04,01,20,30,4.60
2011,04,01,20,31,4.60
2011,04,01,20,32,4.60
2011,04,01,20,33,4.60
2011,04,01,20,34,4.60
2011,04,01,20,35,4.60
2011,04,01,20,36,4.60
2011,04,01,20,37,4.60
2011,04,01,20,38,4.60
2011,04,01,20,39,4.60
2011,04,01,20,40,4.60
2011,04,01,20,41,4.60
2011,04,01,20,42,4.60
2011,04,01,20,43,4.60
2011,04,01,20,44,4.60
2011,04,01,20,45,4.50
2011,04,01,20,46,4.50
2011,04,01,20,47,4.50
2011,04,01,20,48,4.50
2011,04,01,20,49,4.50
2011,04,01,20,50,4.40
2011,04,01,20,51,4.40
2011,04,01,20,52,4.40
2011,04,01,20,53,4.40
2011,04,01,20,54,4.40
2011,04,01,20,55,4.40
2011,04,01,20,56,4.40
2011,04,01,20,57,4.30
2011,04,01,20,58,4.30
2011,04,01,20,59,4.30
2011,04,01,21,00,4.30
2011,04,01,21,01,4.30
2011,04,01,21,02,4.30
2011,04,01,21,03,4.30
2011,04,01,21,04,4.30
2011,04,01,21,05,4.30
2011,04,01,21,06,4.20
2011,04,01,21,07,4.20
2011,04,01,21,08,4.20
2011,04,01,21,09,4.20
2011,04,01,21,10,4.20
2011,04,01,21,11,4.20
2011,04,01,21,12,4.20
2011,04,01,21,13,4.20
2011,04,01,21,14,4.20
2011,04,01,21,15,4.10
2011,04,01,21,16,4.10
2011,04,01,21,17,4.10
2011,04,01,21,18,4.10
2011,04,01,21,19,4.10
2011,04,01,21,20,4.10
2011,04,01,21,21,4.10
2011,04,01,21,22,4.10
2011,04,01,21,23,4.10
2011,04,01,21,24,4.10
2011,04,01,21,25,4.10
2011,04,01,21,26,4.10
2011,04,01,21,27,4.10
2011,04,01,21,28,4.10
2011,04,01,21,29,4.10
2011,04,01,21,30,4.00
2011,04,01,21,31,4.00
2011,04,01,21,32,4.00
2011,04,01,21,33,4.00
2011,04,01,21,34,4.00
2011,04,01,21,35,4.00
2011,04,01,21,36,4.00
2011,04,01,21,37,4.00
2011,04,01,21,38,4.00
2011,04,01,21,39,4.00
2011,04,01,21,40,4.00
2011,04,01,21,41,4.00
2011,04,01,21,42,4.00
2011,04,01,21,43,4.00
2011,04,01,21,44,4.00
2011,04,01,21,45,4.00
2011,04,01,21,46,4.00
2011,04,01,21,47,4.00
2011,04,01,21,48,4.00
2011,04,01,21,49,4.00
2011,04,01,21,50,4.00
2011,04,01,21,51,4.00
2011,04,01,21,52,4.00
2011,04,01,21,53,4.00
2011,04,01,21,54,4.00
2011,04,01,21,55,4.00
2011,04,01,21,56,4.00
2011,04,01,21,57,4.00
2011,04,01,21,58,3.90
2011,04,01,21,59,3.90
2011,04,01,22,00,3.90
2011,04,01,22,01,3.90
2011,04,01,22,02,3.90
2011,04,01,22,03,3.90
2011,04,01,22,04,3.90
2011,04,01,22,05,3.90
2011,04,01,22,06,3.90
2011,04,01,22,07,3.90
2011,04,01,22,08,3.90
2011,04,01,22,09,3.90
2011,04,01,22,10,3.80
2011,04,01,22,11,3.80
2011,04,01,22,12,3.80
2011,04,01,22,13,3.80
2011,04,01,22,14,3.80
2011,04,01,22,15,3.80
2011,04,01,22,16,3.80
2011,04,01,22,17,3.80
2011,04,01,22,18,3.80
2011,04,01,22,19,3.70
2011,04,01,22,20,3.70
2011,04,01,22,21,3.70
2011,04,01,22,22,3.70
2011,04,01,22,23,3.70
2011,04,01,22,24,3.70
2011,04,01,22,25,3.70
2011,04,01,22,26,3.60
2011,04,01,22,27,3.60
2011,04,01,22,28,3.60
2011,04,01,22,29,3.60
2011,04,01,22,30,3.60
2011,04,01,22,31,3.60
2011,04,01,22,32,3.60
2011,04,01,22,33,3.60
2011,04,01,22,34,3.50
2011,04,01,22,35,3.50
2011,04,01,22,36,3.50
2011,04,01,22,37,3.50
2011,04,01,22,38,3.50
2011,04,01,22,39,3.40
2011,04,01,22,40,3.40
2011,04,01,22,41,3.40
2011,04,01,22,42,3.40
2011,04,01,22,43,3.40
2011,04,01,22,44,3.40
2011,04,01,22,45,3.40
2011,04,01,22,46,3.40
2011,04,01,22,47,3.40
2011,04,01,22,48,3.30
2011,04,01,22,49,3.30
2011,04,01,22,50,3.30
2011,04,01,22,51,3.30
2011,04,01,22,52,3.30
2011,04,01,22,53,3.30
2011,04,01,22,54,3.30
2011,04,01,22,55,3.30
2011,04,01,22,56,3.30
2011,04,01,22,57,3.30
2011,04,01,22,58,3.30
2011,04,01,22,59,3.30
2011,04,01,23,00,3.30
2011,04,01,23,01,3.30
2011,04,01,23,02,3.30
2011,04,01,23,03,3.30
2011,04,01,23,04,3.20
2011,04,01,23,05,3.20
2011,04,01,23,06,3.20
2011,04,01,23,07,3.20
2011,04,01,23,08,3.20
2011,04,01,23,09,3.20
2011,04,01,23,10,3.20
2011,04,01,23,11,3.20
2011,04,01,23,12,3.20
2011,04,01,23,13,3.20
2011,04,01,23,14,3.20
2011,04,01,23,15,3.20
2011,04,01,23,16,3.10
2011,04,01,23,17,3.10
2011,04,01,23,18,3.10
2011,04,01,23,19,3.10
2011,04,01,23,20,3.10
2011,04,01,23,21,3.20
2011,04,01,23,22,3.20
2011,04,01,23,23,3.20
2011,04,01,23,24,3.20
2011,04,01,23,25,3.20
2011,04,01,23,26,3.20
2011,04,01,23,27,3.20
2011,04,01,23,28,3.20
2011,04,01,23,29,3.20
2011,04,01,23,30,3.10
2011,04,01,23,31,3.10
2011,04,01,23,32,3.10
2011,04,01,23,33,3.10
2011,04,01,23,34,3.10
2011,04,01,23,35,3.10
2011,04,01,23,36,3.10
2011,04,01,23,37,3.20
2011,04,01,23,38,3.20
2011,04,01,23,39,3.20
2011,04,01,23,40,3.20
2011,04,01,23,41,3.20
2011,04,01,23,42,3.20
2011,04,01,23,43,3.20
2011,04,01,23,44,3.20
2011,04,01,23,45,3.20
2011,04,01,23,46,3.20
2011,04,01,23,47,3.20
2011,04,01,23,48,3.20
2011,04,01,23,49,3.30
2011,04,01,23,50,3.30
2011,04,01,23,51,3.30
2011,04,01,23,52,3.30
2011,04,01,23,53,3.30
2011,04,01,23,54,3.30
2011,04,01,23,55,3.30
2011,04,01,23,56,3.30
2011,04,01,23,57,3.30
2011,04,01,23,58,3.30
2011,04,01,23,59,3.30
